• In Belgium
  • List of Countries
  • For 7 days
  • Water Temperature
  • Satellite Maps
  • Weather Map
  • Weather Widgets
  • user-avatar
    Login

    Hourly Weather Compton

    Today, 22 November, Wednesday

    Time Temperature Precipitation Wind Pressure Humidity
    00:00 +26°C° 0 mm 2 mps 762 mmHg 20%
    01:00 +26°C° 0 mm 2 mps 762 mmHg 20%
    02:00 +26°C° 0 mm 2 mps 762 mmHg 20%
    03:00 +25°C° 0 mm 2 mps 762 mmHg 21%
    04:00 +25°C° 0 mm 2 mps 761 mmHg 21%
    05:00 +25°C° 0 mm 2 mps 762 mmHg 22%
    06:00 +25°C° 0 mm 2 mps 762 mmHg 22%
    07:00 +25°C° 0 mm 2 mps 762 mmHg 23%
    08:00 +27°C° 0 mm 2 mps 762 mmHg 21%
    09:00 +29°C° 0 mm 2 mps 762 mmHg 20%
    10:00 +31°C° 0 mm 2 mps 762 mmHg 18%
    11:00 +32°C° 0 mm 1 mps 762 mmHg 18%
    12:00 +34°C° 0 mm 1 mps 761 mmHg 17%
    13:00 +35°C° 0 mm 1 mps 761 mmHg 16%
    14:00 +34°C° 0 mm 1 mps 761 mmHg 17%
    15:00 +35°C° 0 mm 2 mps 761 mmHg 18%
    16:00 +34°C° 0 mm 2 mps 760 mmHg 19%
    17:00 +32°C° 0 mm 2 mps 761 mmHg 20%
    18:00 +30°C° 0 mm 2 mps 761 mmHg 22%
    19:00 +29°C° 0 mm 3 mps 761 mmHg 24%
    20:00 +29°C° 0 mm 2 mps 761 mmHg 25%
    21:00 +28°C° 0 mm 2 mps 762 mmHg 25%
    22:00 +28°C° 0 mm 2 mps 762 mmHg 26%
    23:00 +27°C° 0 mm 2 mps 762 mmHg 26%

    Tomorrow, 23 November, Thursday

    Time Temperature Precipitation Wind Pressure Humidity
    00:00 +27°C° 0 mm 2 mps 761 mmHg 27%
    01:00 +27°C° 0 mm 2 mps 761 mmHg 28%
    02:00 +26°C° 0 mm 2 mps 761 mmHg 28%
    03:00 +26°C° 0 mm 2 mps 761 mmHg 29%
    04:00 +26°C° 0 mm 2 mps 761 mmHg 29%
    05:00 +26°C° 0 mm 2 mps 761 mmHg 29%
    06:00 +26°C° 0 mm 2 mps 761 mmHg 29%
    07:00 +26°C° 0 mm 2 mps 761 mmHg 29%
    08:00 +27°C° 0 mm 1 mps 761 mmHg 26%
    09:00 +29°C° 0 mm 1 mps 761 mmHg 23%
    10:00 +31°C° 0 mm 1 mps 761 mmHg 20%
    11:00 +32°C° 0 mm 1 mps 761 mmHg 19%
    12:00 +34°C° 0 mm 2 mps 760 mmHg 18%
    13:00 +35°C° 0 mm 2 mps 759 mmHg 17%
    14:00 +34°C° 0 mm 2 mps 759 mmHg 18%
    15:00 +32°C° 0 mm 2 mps 759 mmHg 20%
    16:00 +33°C° 0 mm 3 mps 758 mmHg 22%
    17:00 +30°C° 0 mm 2 mps 759 mmHg 24%
    18:00 +29°C° 0 mm 2 mps 759 mmHg 26%
    19:00 +28°C° 0 mm 2 mps 759 mmHg 28%
    20:00 +27°C° 0 mm 1 mps 759 mmHg 28%
    21:00 +27°C° 0 mm 1 mps 760 mmHg 29%
    22:00 +26°C° 0 mm 1 mps 760 mmHg 29%
    23:00 +26°C° 0 mm 1 mps 759 mmHg 29%

    Day after tomorrow, 24 November, Friday

    Time Temperature Precipitation Wind Pressure Humidity
    00:00 +26°C° 0 mm 1 mps 759 mmHg 29%
    01:00 +25°C° 0 mm 1 mps 759 mmHg 29%
    02:00 +25°C° 0 mm 1 mps 758 mmHg 30%
    03:00 +25°C° 0 mm 1 mps 758 mmHg 30%
    04:00 +25°C° 0 mm 1 mps 758 mmHg 31%
    05:00 +25°C° 0 mm 1 mps 758 mmHg 30%
    06:00 +24°C° 0 mm 1 mps 758 mmHg 30%
    07:00 +24°C° 0 mm 1 mps 759 mmHg 29%
    08:00 +26°C° 0 mm 1 mps 759 mmHg 26%
    09:00 +28°C° 0 mm 1 mps 759 mmHg 24%
    10:00 +29°C° 0 mm 1 mps 759 mmHg 21%
    11:00 +30°C° 0 mm 1 mps 758 mmHg 20%
    12:00 +31°C° 0 mm 1 mps 758 mmHg 19%
    13:00 +31°C° 0 mm 1 mps 757 mmHg 19%
    14:00 +31°C° 0 mm 1 mps 757 mmHg 21%
    15:00 +30°C° 0 mm 1 mps 757 mmHg 22%
    16:00 +30°C° 0 mm 1 mps 757 mmHg 24%
    17:00 +29°C° 0 mm 1 mps 757 mmHg 26%
    18:00 +27°C° 0 mm 1 mps 757 mmHg 28%
    19:00 +26°C° 0 mm 1 mps 758 mmHg 30%
    20:00 +26°C° 0 mm 1 mps 758 mmHg 31%
    21:00 +25°C° 0 mm 1 mps 758 mmHg 32%
    22:00 +25°C° 0 mm 1 mps 759 mmHg 33%
    23:00 +25°C° 0 mm 1 mps 758 mmHg 33%

    25 November, Saturday

    Time Temperature Precipitation Wind Pressure Humidity
    00:00 +24°C° 0 mm 1 mps 758 mmHg 34%
    01:00 +24°C° 0 mm 1 mps 758 mmHg 35%
    02:00 +24°C° 0 mm 1 mps 758 mmHg 35%
    03:00 +23°C° 0 mm 1 mps 758 mmHg 35%
    04:00 +23°C° 0 mm 2 mps 758 mmHg 35%
    05:00 +23°C° 0 mm 2 mps 759 mmHg 34%
    06:00 +23°C° 0 mm 2 mps 759 mmHg 33%
    07:00 +23°C° 0 mm 2 mps 760 mmHg 31%
    08:00 +25°C° 0 mm 2 mps 760 mmHg 28%
    09:00 +26°C° 0 mm 2 mps 760 mmHg 26%
    10:00 +28°C° 0 mm 2 mps 761 mmHg 23%
    11:00 +29°C° 0 mm 2 mps 760 mmHg 22%
    12:00 +29°C° 0 mm 2 mps 760 mmHg 22%
    13:00 +30°C° 0 mm 2 mps 760 mmHg 21%
    14:00 +29°C° 0 mm 2 mps 760 mmHg 23%
    15:00 +29°C° 0 mm 2 mps 760 mmHg 24%
    16:00 +28°C° 0 mm 1 mps 760 mmHg 26%
    17:00 +27°C° 0 mm 1 mps 760 mmHg 30%
    18:00 +26°C° 0 mm 1 mps 761 mmHg 33%
    19:00 +23°C° 0 mm 0 mps 761 mmHg 36%
    20:00 +22°C° 0 mm 0 mps 762 mmHg 37%
    21:00 +22°C° 0 mm 0 mps 762 mmHg 37%
    22:00 +22°C° 0 mm 0 mps 762 mmHg 38%
    23:00 +21°C° 0 mm 0 mps 762 mmHg 38%

    26 November, Sunday

    Time Temperature Precipitation Wind Pressure Humidity
    00:00 +21°C° 0 mm 0 mps 762 mmHg 38%
    01:00 +21°C° 0 mm 0 mps 762 mmHg 38%
    02:00 +21°C° 0 mm 0 mps 762 mmHg 38%
    03:00 +22°C° 0 mm 1 mps 762 mmHg 38%
    04:00 +22°C° 0 mm 1 mps 762 mmHg 38%
    05:00 +22°C° 0 mm 1 mps 762 mmHg 37%
    06:00 +22°C° 0 mm 1 mps 762 mmHg 36%
    07:00 +22°C° 0 mm 1 mps 762 mmHg 36%
    08:00 +24°C° 0 mm 1 mps 762 mmHg 32%
    09:00 +25°C° 0 mm 1 mps 762 mmHg 29%
    10:00 +27°C° 0 mm 1 mps 763 mmHg 25%
    11:00 +28°C° 0 mm 1 mps 762 mmHg 24%
    12:00 +28°C° 0 mm 2 mps 761 mmHg 23%
    13:00 +29°C° 0 mm 3 mps 761 mmHg 22%
    14:00 +28°C° 0 mm 3 mps 761 mmHg 24%
    15:00 +28°C° 0 mm 3 mps 760 mmHg 26%
    16:00 +27°C° 0 mm 3 mps 760 mmHg 28%
    17:00 +26°C° 0 mm 3 mps 761 mmHg 32%
    18:00 +25°C° 0 mm 3 mps 761 mmHg 36%
    19:00 +24°C° 0 mm 3 mps 761 mmHg 40%
    20:00 +22°C° 0 mm 3 mps 761 mmHg 42%
    21:00 +23°C° 0 mm 2 mps 762 mmHg 43%
    22:00 +23°C° 0 mm 2 mps 762 mmHg 45%
    23:00 +21°C° 0 mm 2 mps 761 mmHg 47%

    27 November, Monday

    Time Temperature Precipitation Wind Pressure Humidity
    00:00 +21°C° 0 mm 2 mps 761 mmHg 49%
    01:00 +21°C° 0 mm 2 mps 761 mmHg 51%
    02:00 +21°C° 0 mm 2 mps 761 mmHg 53%
    03:00 +20°C° 0 mm 2 mps 761 mmHg 56%
    04:00 +20°C° 0 mm 2 mps 761 mmHg 59%
    05:00 +20°C° 0 mm 2 mps 761 mmHg 59%
    06:00 +19°C° 0 mm 2 mps 761 mmHg 60%
    07:00 +19°C° 0 mm 2 mps 762 mmHg 60%
    08:00 +20°C° 0 mm 2 mps 762 mmHg 56%
    09:00 +21°C° 0 mm 2 mps 762 mmHg 51%
    10:00 +23°C° 0 mm 2 mps 761 mmHg 47%
    11:00 +24°C° 0 mm 2 mps 761 mmHg 44%
    12:00 +24°C° 0 mm 3 mps 760 mmHg 42%
    13:00 +25°C° 0 mm 3 mps 760 mmHg 39%
    14:00 +24°C° 0 mm 3 mps 759 mmHg 40%
    15:00 +24°C° 0 mm 3 mps 759 mmHg 40%
    16:00 +24°C° 0 mm 3 mps 759 mmHg 40%
    17:00 +23°C° 0 mm 2 mps 760 mmHg 40%
    18:00 +21°C° 0 mm 2 mps 760 mmHg 40%
    19:00 +20°C° 0 mm 2 mps 760 mmHg 40%
    20:00 +20°C° 0 mm 2 mps 760 mmHg 39%
    21:00 +19°C° 0 mm 2 mps 761 mmHg 39%
    22:00 +19°C° 0 mm 2 mps 761 mmHg 38%
    23:00 +19°C° 0 mm 3 mps 761 mmHg 37%
    Show more